STARLINK-33577 (62762 NORAD) Tracking and Keplerian Element Data

This shows tracking and keplerian element data for the satellite.

Feedback or suggestion? Click here.




ElementValue
Catalog62762
NameSTARLINK-33577
Epoch Orbit5230
Epoch Day354.12540792
Epoch Year2025
RAAN331.7282
Inclination53.162
Eccentricity0.0001751
Argument of Perigee96.4752
Mean Anonmoly263.6448
Mean Motion15.30219548
Decay Rate0.00019896
L11 62762U 25015E 25354.12540792 .00019896 00000+0 68167-3 0 9998
L22 62762 53.1620 331.7282 0001751 96.4752 263.6448 15.30219548 52306



Live tracking and technical data element details for STARLINK-33577 (NORAD 62762). STARLINK-33577 can be tracked NOW for your location showing map with azimuth and elevation plus other details from your city location.







IsCatalogInMostPopularTable: catalog: 62762, numindb: 235
Update: records affected: 1



GetName: 62762 STARLINK-33577

Hit Count: updated at: Thu, 16 Apr 2026 06:54:09 GMT